Previsão horária em Almaly

Hoje, 16 Janeiro, Sábado

Tempo Temperatura Precipitação Vento Pressão Humidade
00:00 -4°C° 0.5 mm 9 m/s 751 mmHg 95%
01:00 -4°C° 0 mm 9 m/s 751 mmHg 93%
02:00 -5°C° 0 mm 9 m/s 752 mmHg 92%
03:00 -8°C° 0 mm 9 m/s 754 mmHg 87%
04:00 -8°C° 0 mm 8 m/s 754 mmHg 87%
05:00 -10°C° 0 mm 8 m/s 755 mmHg 87%
06:00 -12°C° 0 mm 7 m/s 756 mmHg 88%
07:00 -12°C° 0 mm 7 m/s 757 mmHg 88%
08:00 -10°C° 0 mm 6 m/s 758 mmHg 89%
09:00 -11°C° 0 mm 7 m/s 760 mmHg 89%
10:00 -9°C° 0 mm 7 m/s 760 mmHg 88%
11:00 -9°C° 0 mm 7 m/s 760 mmHg 87%
12:00 -8°C° 0 mm 7 m/s 761 mmHg 85%
13:00 -8°C° 0 mm 6 m/s 761 mmHg 85%
14:00 -7°C° 0 mm 5 m/s 761 mmHg 85%
15:00 -5°C° 0 mm 4 m/s 761 mmHg 86%
16:00 -7°C° 0 mm 5 m/s 761 mmHg 85%
17:00 -8°C° 0 mm 5 m/s 761 mmHg 85%
18:00 -9°C° 0 mm 6 m/s 761 mmHg 84%
19:00 -9°C° 0 mm 6 m/s 761 mmHg 83%
20:00 -8°C° 0 mm 7 m/s 761 mmHg 81%
21:00 -8°C° 0 mm 7 m/s 761 mmHg 79%
22:00 -8°C° 0 mm 6 m/s 762 mmHg 82%
23:00 -8°C° 0 mm 6 m/s 762 mmHg 85%

Amanhã, 17 Janeiro, Domingo

Tempo Temperatura Precipitação Vento Pressão Humidade
00:00 -8°C° 0 mm 5 m/s 762 mmHg 88%
01:00 -9°C° 0 mm 4 m/s 762 mmHg 88%
02:00 -10°C° 0 mm 4 m/s 762 mmHg 89%
03:00 -12°C° 0 mm 3 m/s 762 mmHg 89%
04:00 -12°C° 0 mm 3 m/s 762 mmHg 88%
05:00 -13°C° 0 mm 3 m/s 762 mmHg 87%
06:00 -14°C° 0 mm 3 m/s 762 mmHg 85%
07:00 -13°C° 0 mm 2 m/s 762 mmHg 84%
08:00 -12°C° 0 mm 2 m/s 762 mmHg 83%
09:00 -12°C° 0 mm 2 m/s 762 mmHg 82%
10:00 -10°C° 0 mm 2 m/s 762 mmHg 79%
11:00 -9°C° 0 mm 2 m/s 762 mmHg 77%
12:00 -9°C° 0 mm 2 m/s 762 mmHg 74%
13:00 -9°C° 0 mm 2 m/s 761 mmHg 77%
14:00 -9°C° 0 mm 2 m/s 761 mmHg 81%
15:00 -9°C° 0 mm 2 m/s 761 mmHg 85%
16:00 -12°C° 0 mm 3 m/s 761 mmHg 85%
17:00 -14°C° 0 mm 4 m/s 761 mmHg 86%
18:00 -15°C° 0 mm 4 m/s 761 mmHg 86%
19:00 -15°C° 0 mm 4 m/s 761 mmHg 85%
20:00 -15°C° 0 mm 4 m/s 761 mmHg 83%
21:00 -15°C° 0 mm 4 m/s 761 mmHg 82%
22:00 -14°C° 0 mm 5 m/s 760 mmHg 81%
23:00 -14°C° 0 mm 5 m/s 760 mmHg 80%

Depois de amanhã, 18 Janeiro, Segunda-feira

Tempo Temperatura Precipitação Vento Pressão Humidade
00:00 -14°C° 0 mm 5 m/s 760 mmHg 79%
01:00 -15°C° 0 mm 6 m/s 759 mmHg 79%
02:00 -15°C° 0 mm 6 m/s 759 mmHg 78%
03:00 -14°C° 0 mm 7 m/s 759 mmHg 78%
04:00 -14°C° 0 mm 7 m/s 758 mmHg 80%
05:00 -14°C° 0 mm 7 m/s 758 mmHg 82%
06:00 -14°C° 0 mm 6 m/s 757 mmHg 84%
07:00 -14°C° 0 mm 6 m/s 757 mmHg 86%
08:00 -12°C° 0 mm 6 m/s 757 mmHg 88%
09:00 -11°C° 0 mm 6 m/s 757 mmHg 90%
10:00 -10°C° 0 mm 6 m/s 756 mmHg 89%
11:00 -8°C° 0 mm 5 m/s 756 mmHg 89%
12:00 -7°C° 0 mm 5 m/s 756 mmHg 89%
13:00 -7°C° 0 mm 5 m/s 755 mmHg 90%
14:00 -7°C° 0 mm 5 m/s 755 mmHg 90%
15:00 -7°C° 0 mm 4 m/s 754 mmHg 91%
16:00 -8°C° 0 mm 4 m/s 754 mmHg 92%
17:00 -7°C° 0 mm 3 m/s 754 mmHg 92%
18:00 -8°C° 0 mm 3 m/s 754 mmHg 93%
19:00 -8°C° 0 mm 3 m/s 754 mmHg 93%
20:00 -7°C° 0 mm 2 m/s 754 mmHg 94%
21:00 -6°C° 0 mm 2 m/s 754 mmHg 94%
22:00 -6°C° 0.1 mm 2 m/s 754 mmHg 95%
23:00 -4°C° 0.1 mm 1 m/s 754 mmHg 95%

19 Janeiro, Terça-feira

Tempo Temperatura Precipitação Vento Pressão Humidade
00:00 -4°C° 0.1 mm 1 m/s 754 mmHg 96%
01:00 -8°C° 0.1 mm 3 m/s 754 mmHg 95%
02:00 -12°C° 0.1 mm 5 m/s 754 mmHg 94%
03:00 -14°C° 0.1 mm 6 m/s 754 mmHg 92%
04:00 -17°C° 0 mm 7 m/s 755 mmHg 92%
05:00 -18°C° 0 mm 7 m/s 756 mmHg 91%
06:00 -19°C° 0 mm 8 m/s 756 mmHg 90%
07:00 -19°C° 0 mm 8 m/s 757 mmHg 90%
08:00 -20°C° 0 mm 7 m/s 758 mmHg 90%
09:00 -20°C° 0 mm 7 m/s 758 mmHg 89%
10:00 -20°C° 0 mm 7 m/s 759 mmHg 89%
11:00 -19°C° 0 mm 7 m/s 760 mmHg 89%
12:00 -18°C° 0 mm 7 m/s 760 mmHg 88%
13:00 -17°C° 0 mm 6 m/s 761 mmHg 88%
14:00 -17°C° 0 mm 6 m/s 761 mmHg 88%
15:00 -17°C° 0 mm 5 m/s 761 mmHg 89%
16:00 -18°C° 0 mm 5 m/s 761 mmHg 90%
17:00 -18°C° 0 mm 4 m/s 762 mmHg 91%
18:00 -19°C° 0 mm 4 m/s 762 mmHg 93%
19:00 -18°C° 0 mm 3 m/s 762 mmHg 93%
20:00 -18°C° 0 mm 3 m/s 763 mmHg 94%
21:00 -18°C° 0 mm 3 m/s 763 mmHg 94%
22:00 -19°C° 0 mm 3 m/s 763 mmHg 94%
23:00 -19°C° 0 mm 3 m/s 763 mmHg 94%

20 Janeiro, Quarta-feira

Tempo Temperatura Precipitação Vento Pressão Humidade
00:00 -19°C° 0 mm 3 m/s 764 mmHg 94%
01:00 -19°C° 0 mm 3 m/s 764 mmHg 94%
02:00 -18°C° 0 mm 3 m/s 764 mmHg 94%
03:00 -18°C° 0 mm 3 m/s 764 mmHg 94%
04:00 -18°C° 0 mm 3 m/s 764 mmHg 95%
05:00 -17°C° 0 mm 2 m/s 764 mmHg 95%
06:00 -17°C° 0 mm 2 m/s 764 mmHg 95%
07:00 -17°C° 0 mm 2 m/s 765 mmHg 95%
08:00 -16°C° 0 mm 2 m/s 765 mmHg 95%
09:00 -16°C° 0 mm 2 m/s 765 mmHg 94%
10:00 -17°C° 0 mm 3 m/s 765 mmHg 92%
11:00 -17°C° 0 mm 4 m/s 765 mmHg 90%
12:00 -17°C° 0 mm 5 m/s 765 mmHg 88%
13:00 -18°C° 0 mm 5 m/s 765 mmHg 88%
14:00 -17°C° 0 mm 4 m/s 765 mmHg 88%
15:00 -18°C° 0 mm 4 m/s 765 mmHg 88%
16:00 -19°C° 0 mm 4 m/s 766 mmHg 90%
17:00 -20°C° 0 mm 4 m/s 766 mmHg 92%
18:00 -23°C° 0 mm 4 m/s 766 mmHg 94%
19:00 -22°C° 0 mm 3 m/s 767 mmHg 94%
20:00 -23°C° 0 mm 3 m/s 767 mmHg 94%
21:00 -23°C° 0 mm 3 m/s 767 mmHg 94%
22:00 -24°C° 0 mm 3 m/s 767 mmHg 94%
23:00 -24°C° 0 mm 3 m/s 768 mmHg 94%

21 Janeiro, Quinta-feira

Tempo Temperatura Precipitação Vento Pressão Humidade
00:00 -24°C° 0 mm 3 m/s 768 mmHg 94%
01:00 -25°C° 0 mm 3 m/s 768 mmHg 94%
02:00 -25°C° 0 mm 3 m/s 768 mmHg 95%
03:00 -25°C° 0 mm 3 m/s 769 mmHg 95%
04:00 -25°C° 0 mm 3 m/s 769 mmHg 95%
05:00 -26°C° 0 mm 3 m/s 769 mmHg 95%
06:00 -26°C° 0 mm 3 m/s 769 mmHg 95%
07:00 -26°C° 0 mm 3 m/s 770 mmHg 94%
08:00 -25°C° 0 mm 3 m/s 770 mmHg 94%
09:00 -25°C° 0 mm 3 m/s 771 mmHg 93%
10:00 -24°C° 0 mm 3 m/s 771 mmHg 91%
11:00 -23°C° 0 mm 3 m/s 771 mmHg 88%
12:00 -22°C° 0 mm 3 m/s 772 mmHg 85%
13:00 -22°C° 0 mm 3 m/s 772 mmHg 86%
14:00 -21°C° 0 mm 3 m/s 772 mmHg 87%
15:00 -21°C° 0 mm 3 m/s 772 mmHg 88%
16:00 -22°C° 0 mm 3 m/s 772 mmHg 90%
17:00 -23°C° 0 mm 3 m/s 772 mmHg 92%
18:00 -23°C° 0 mm 2 m/s 772 mmHg 95%
19:00 -24°C° 0 mm 3 m/s 772 mmHg 95%
20:00 -23°C° 0 mm 3 m/s 772 mmHg 95%
21:00 -23°C° 0 mm 3 m/s 772 mmHg 95%
22:00 -22°C° 0 mm 3 m/s 772 mmHg 95%
23:00 -23°C° 0 mm 4 m/s 772 mmHg 95%
Mostrar mais

Necessitamos do seu Consentimento

A Meteoprog e os seus Fornecedores de Serviços podem armazenar e aceder a dados pessoais como cookies, identificadores do dispositivo ou outras tecnologias semelhantes existentes no seu dispositivo e processar estes dados para personalizar conteúdos e anúncios, assim como funcionalidades nas redes sociais e análise de tráfego.

  • Armazenar e/ou aceder a informações no seu dispositivo

    Os cookies, identificadores do dispositivo ou outras informações podem ser armazenados ou acedidos no seu dispositivo, para os fins acima indicados.

  • Anúncios e conteúdos personalizados, medição de anúncios e conteúdos, dados sobre o público-alvo e desenvolvimento de produtos

    Os anúncios e os conteúdos podem ser personalizados com base num perfil. Podem ser adicionados dados adicionais para uma maior personalização dos anúncios e dos conteúdos. A eficácia dos anúncios e dos conteúdos pode ser medida. Podem ser obtidas informações sobre o público que visualizou os anúncios e os conteúdos. Estes dados podem ser usados para desenvolver ou melhorar sistemas, softwares ou a experiência do utilizador.

Ao clicar em "Eu concordo”, permitirá o uso de cookies, identificadores do dispositivo e web beacons mencionados ou outras tecnologias semelhantes. As configurações do navegador do seu dispositivo podem ser alteradas.

Para certos fins, podem ser invocados interesses legítimos ao invés de consentimento. Pode ler mais informação sobre este assunto na nossa Política de Privacidade e Cookies.